CAL503 RCTP-ZSPD

Flight info

Callsign CAL503
Flight time 1h 22m
Altitude 37000
Route PIANO1C PIANO L3 VIOLA R596 SULEM/K0920S1100 R596 DST/K0917S1130 B221 SHZ W58 BK BK83A
Aircraft B77W/H-SDE1E2E3FGHIJ2J3J4J5M1RWXY/LB1D1

Departure

Time 2026-05-05 03:47
Airport Taiwan Taoyuan International Airport (RCTP)

Arrival

Time 2026-05-05 05:10
Airport Shanghai Pudong International Airport (ZSPD)
Time Latitude Longitude Altitude Speed Heading
2026-05-05 03:29 25.07859 121.22976 121 ft 0 kts 137°
2026-05-05 03:37 25.07860 121.22975 121 ft 1 kts 137°
2026-05-05 03:37 25.07871 121.22964 121 ft 2 kts 137°
2026-05-05 03:37 25.07882 121.22952 121 ft 2 kts 137°
2026-05-05 03:37 25.07893 121.22942 121 ft 2 kts 137°
2026-05-05 03:38 25.07904 121.22930 121 ft 2 kts 137°
2026-05-05 03:38 25.07916 121.22920 121 ft 2 kts 148°
2026-05-05 03:38 25.07929 121.22913 121 ft 2 kts 178°
2026-05-05 03:38 25.07944 121.22916 121 ft 2 kts 202°
2026-05-05 03:39 25.07957 121.22925 121 ft 2 kts 227°
2026-05-05 03:39 25.07966 121.22937 121 ft 2 kts 232°
2026-05-05 03:39 25.07975 121.22949 121 ft 0 kts 229°
2026-05-05 03:39 25.07976 121.22950 121 ft 0 kts 229°
2026-05-05 03:41 25.07968 121.22941 121 ft 3 kts 229°
2026-05-05 03:42 25.07945 121.22911 121 ft 6 kts 229°
2026-05-05 03:42 25.07907 121.22862 121 ft 9 kts 229°
2026-05-05 03:42 25.07862 121.22807 121 ft 9 kts 229°
2026-05-05 03:42 25.07818 121.22750 121 ft 10 kts 229°
2026-05-05 03:43 25.07766 121.22685 121 ft 12 kts 229°
2026-05-05 03:43 25.07712 121.22615 121 ft 11 kts 229°
2026-05-05 03:43 25.07659 121.22547 121 ft 11 kts 229°
2026-05-05 03:43 25.07608 121.22482 121 ft 11 kts 229°
2026-05-05 03:44 25.07556 121.22415 121 ft 12 kts 229°
2026-05-05 03:44 25.07496 121.22340 121 ft 13 kts 229°
2026-05-05 03:44 25.07429 121.22253 121 ft 15 kts 229°
2026-05-05 03:44 25.07354 121.22158 121 ft 17 kts 229°
2026-05-05 03:45 25.07272 121.22053 121 ft 18 kts 230°
2026-05-05 03:45 25.07186 121.21944 121 ft 19 kts 229°
2026-05-05 03:45 25.07114 121.21849 121 ft 10 kts 231°
2026-05-05 03:45 25.07112 121.21782 121 ft 10 kts 308°
2026-05-05 03:46 25.07165 121.21726 121 ft 11 kts 316°
2026-05-05 03:46 25.07231 121.21660 121 ft 14 kts 319°
2026-05-05 03:46 25.07315 121.21636 121 ft 10 kts 23°
2026-05-05 03:46 25.07347 121.21670 121 ft 10 kts 49°
2026-05-05 03:47 25.07551 121.21935 121 ft 86 kts 48°
2026-05-05 03:47 25.08120 121.22657 146 ft 155 kts 50°
2026-05-05 03:47 25.08846 121.23556 798 ft 164 kts 49°
2026-05-05 03:47 25.09624 121.24490 1595 ft 166 kts 50°
2026-05-05 03:48 25.10416 121.25510 1973 ft 183 kts 51°
2026-05-05 03:48 25.11295 121.26659 2318 ft 204 kts 51°
2026-05-05 03:48 25.12266 121.27929 2788 ft 221 kts 51°
2026-05-05 03:48 25.13296 121.29229 3377 ft 230 kts 43°
2026-05-05 03:49 25.14694 121.30119 4015 ft 235 kts 15°
2026-05-05 03:49 25.16345 121.30269 4548 ft 244 kts 349°
2026-05-05 03:49 25.17986 121.29594 4864 ft 262 kts 326°
2026-05-05 03:49 25.19728 121.28720 5202 ft 286 kts 347°
2026-05-05 03:50 25.21696 121.28487 6001 ft 288 kts 356°
2026-05-05 03:50 25.23710 121.28436 6811 ft 291 kts 357°
2026-05-05 03:50 25.25765 121.28409 7596 ft 294 kts 357°
2026-05-05 03:50 25.27832 121.28376 8412 ft 295 kts 356°
2026-05-05 03:51 25.29876 121.28339 9225 ft 295 kts 356°
2026-05-05 03:51 25.31937 121.28300 9974 ft 296 kts 354°
2026-05-05 03:51 25.34052 121.28328 10531 ft 308 kts
2026-05-05 03:51 25.36241 121.28705 10965 ft 327 kts
2026-05-05 03:52 25.38487 121.29521 11386 ft 348 kts 19°
2026-05-05 03:52 25.40676 121.30816 11806 ft 370 kts 30°
2026-05-05 03:52 25.42748 121.32663 12256 ft 391 kts 41°
2026-05-05 03:52 25.44577 121.34985 12866 ft 405 kts 49°
2026-05-05 03:53 25.46364 121.37413 13546 ft 414 kts 48°
2026-05-05 03:53 25.48258 121.39941 14144 ft 428 kts 48°
2026-05-05 03:53 25.50201 121.42499 14849 ft 439 kts 47°
2026-05-05 03:53 25.52193 121.45097 15643 ft 447 kts 47°
2026-05-05 03:54 25.54217 121.47723 16520 ft 452 kts 47°
2026-05-05 03:54 25.56303 121.50417 17318 ft 461 kts 47°
2026-05-05 03:54 25.58409 121.53131 18014 ft 471 kts 47°
2026-05-05 03:54 25.60573 121.55916 18795 ft 477 kts 47°
2026-05-05 03:55 25.62727 121.58687 19584 ft 480 kts 46°
2026-05-05 03:55 25.64930 121.61520 20353 ft 485 kts 47°
2026-05-05 03:55 25.67162 121.64389 21054 ft 492 kts 47°
2026-05-05 03:55 25.69424 121.67298 21673 ft 500 kts 47°
2026-05-05 03:56 25.71744 121.70283 22332 ft 506 kts 48°
2026-05-05 03:56 25.74057 121.73261 22956 ft 513 kts 48°
2026-05-05 03:56 25.76449 121.76342 23611 ft 520 kts 47°
2026-05-05 03:56 25.78820 121.79394 24247 ft 526 kts 46°
2026-05-05 03:57 25.81451 121.82295 24910 ft 529 kts 38°
2026-05-05 03:57 25.84383 121.84815 25640 ft 531 kts 33°
2026-05-05 03:57 25.87383 121.87238 26366 ft 535 kts 32°
2026-05-05 03:57 25.90468 121.89722 27036 ft 541 kts 32°
2026-05-05 03:58 25.93559 121.92214 27670 ft 547 kts 32°
2026-05-05 03:58 25.96670 121.94727 28345 ft 552 kts 32°
2026-05-05 03:58 25.99785 121.97246 29022 ft 556 kts 32°
2026-05-05 03:58 26.02963 121.99819 29666 ft 560 kts 32°
2026-05-05 03:59 26.06148 122.02336 30432 ft 560 kts 31°
2026-05-05 03:59 26.09338 122.04823 31214 ft 559 kts 30°
2026-05-05 03:59 26.12546 122.07324 31912 ft 560 kts 30°
2026-05-05 03:59 26.15750 122.09825 32526 ft 561 kts 30°
2026-05-05 04:00 26.18980 122.12350 33133 ft 561 kts 30°
2026-05-05 04:00 26.22237 122.14900 33897 ft 558 kts 30°
2026-05-05 04:00 26.25458 122.17426 34673 ft 555 kts 29°
2026-05-05 04:00 26.28645 122.19926 35471 ft 550 kts 29°
2026-05-05 04:01 26.31787 122.22394 36085 ft 549 kts 29°
2026-05-05 04:01 26.35022 122.24935 36615 ft 549 kts 29°
2026-05-05 04:01 26.38185 122.27421 37041 ft 550 kts 29°
2026-05-05 04:01 26.41431 122.29974 37088 ft 553 kts 29°
2026-05-05 04:02 26.47853 122.35034 37098 ft 551 kts 29°
2026-05-05 04:02 26.54254 122.40083 37100 ft 552 kts 29°
2026-05-05 04:03 26.60605 122.45104 37109 ft 551 kts 29°
2026-05-05 04:03 26.66951 122.50124 37104 ft 552 kts 29°
2026-05-05 04:04 26.73331 122.55180 37116 ft 552 kts 29°
2026-05-05 04:04 26.79723 122.60252 37121 ft 553 kts 29°
2026-05-05 04:05 26.86069 122.65295 37121 ft 553 kts 29°
2026-05-05 04:05 26.92392 122.70327 37106 ft 555 kts 29°
2026-05-05 04:06 26.98772 122.75410 37110 ft 555 kts 29°
2026-05-05 04:06 27.05099 122.80460 37118 ft 556 kts 29°
2026-05-05 04:07 27.11501 122.85424 37109 ft 551 kts 23°
2026-05-05 04:07 27.18500 122.88801 37107 ft 535 kts
2026-05-05 04:08 27.25749 122.90075 37102 ft 516 kts 352°
2026-05-05 04:08 27.29335 122.89953 37097 ft 502 kts 343°
2026-05-05 04:08 27.32738 122.89281 37093 ft 487 kts 335°
2026-05-05 04:09 27.35892 122.88098 37098 ft 476 kts 326°
2026-05-05 04:09 27.38823 122.86437 37097 ft 461 kts 318°
2026-05-05 04:09 27.43784 122.81917 37165 ft 448 kts 303°
2026-05-05 04:10 27.45722 122.79221 37199 ft 436 kts 296°
2026-05-05 04:10 27.47287 122.76334 37202 ft 422 kts 289°
2026-05-05 04:10 27.49314 122.70196 37203 ft 416 kts 278°
2026-05-05 04:11 27.49892 122.63872 37199 ft 400 kts 263°
2026-05-05 04:11 27.48453 122.57835 37197 ft 401 kts 245°
2026-05-05 04:12 27.46187 122.52080 37195 ft 398 kts 253°
2026-05-05 04:12 27.44998 122.45974 37196 ft 401 kts 260°
2026-05-05 04:13 27.44766 122.39671 37192 ft 404 kts 272°
2026-05-05 04:13 27.45634 122.33356 37214 ft 409 kts 275°
2026-05-05 04:14 27.46646 122.27022 37216 ft 409 kts 275°
2026-05-05 04:14 27.47696 122.20747 37218 ft 408 kts 275°
2026-05-05 04:15 27.48777 122.14407 37217 ft 409 kts 276°
2026-05-05 04:15 27.49858 122.08128 37219 ft 409 kts 275°
2026-05-05 04:16 27.50938 122.01818 37215 ft 409 kts 276°
2026-05-05 04:16 27.52043 121.95417 37216 ft 410 kts 276°
2026-05-05 04:17 27.53136 121.89094 37212 ft 410 kts 276°
2026-05-05 04:17 27.54233 121.82717 37212 ft 411 kts 276°
2026-05-05 04:18 27.55325 121.76347 37211 ft 411 kts 276°
2026-05-05 04:18 27.56411 121.69993 37207 ft 411 kts 276°
2026-05-05 04:19 27.57488 121.63673 37205 ft 410 kts 276°
2026-05-05 04:19 27.58571 121.57302 37202 ft 410 kts 276°
2026-05-05 04:20 27.59695 121.50953 37202 ft 411 kts 276°
2026-05-05 04:20 27.60816 121.44647 37199 ft 410 kts 276°
2026-05-05 04:21 27.61942 121.38279 37192 ft 410 kts 276°
2026-05-05 04:21 27.63055 121.31962 37212 ft 412 kts 276°
2026-05-05 04:22 27.64138 121.25801 37205 ft 409 kts 276°
2026-05-05 04:22 27.65240 121.19509 37207 ft 409 kts 276°
2026-05-05 04:23 27.66344 121.13184 37207 ft 410 kts 276°
2026-05-05 04:23 27.67441 121.06887 37204 ft 409 kts 276°
2026-05-05 04:24 27.68551 121.00497 37205 ft 409 kts 276°
2026-05-05 04:25 27.70170 120.91147 37197 ft 408 kts 276°
2026-05-05 04:25 27.71257 120.84842 37196 ft 409 kts 276°
2026-05-05 04:26 27.72358 120.78477 37187 ft 410 kts 277°
2026-05-05 04:26 27.74609 120.72395 37191 ft 428 kts 295°
2026-05-05 04:26 27.76508 120.69659 37182 ft 439 kts 304°
2026-05-05 04:27 27.78851 120.67287 37179 ft 453 kts 314°
2026-05-05 04:27 27.81587 120.65346 37177 ft 464 kts 323°
2026-05-05 04:27 27.84672 120.63921 37176 ft 482 kts 333°
2026-05-05 04:27 27.88066 120.63103 37175 ft 498 kts 343°
2026-05-05 04:28 27.91661 120.63005 37178 ft 515 kts 355°
2026-05-05 04:28 27.98992 120.64230 37176 ft 523 kts 359°
2026-05-05 04:29 28.06298 120.65372 37181 ft 521 kts 358°
2026-05-05 04:29 28.13430 120.66320 37171 ft 520 kts 356°
2026-05-05 04:30 28.20769 120.67181 37183 ft 519 kts 356°
2026-05-05 04:30 28.27948 120.67963 37183 ft 516 kts 355°
2026-05-05 04:31 28.34423 120.68635 37189 ft 520 kts 355°
2026-05-05 04:31 28.41635 120.69372 37186 ft 516 kts 355°
2026-05-05 04:32 28.48465 120.70062 37193 ft 518 kts 355°
2026-05-05 04:32 28.55725 120.70801 37194 ft 518 kts 355°
2026-05-05 04:33 28.62807 120.71519 37189 ft 517 kts 355°
2026-05-05 04:33 28.69743 120.72221 37190 ft 518 kts 355°
2026-05-05 04:34 28.76949 120.73007 37181 ft 518 kts 356°
2026-05-05 04:34 28.82673 120.73640 37185 ft 518 kts 356°
2026-05-05 04:35 28.89703 120.74398 37186 ft 518 kts 355°
2026-05-05 04:35 28.96075 120.75052 37181 ft 518 kts 355°
2026-05-05 04:36 29.03352 120.75799 37178 ft 518 kts 355°
2026-05-05 04:36 29.10629 120.76548 37174 ft 517 kts 355°
2026-05-05 04:37 29.17854 120.77293 37164 ft 518 kts 356°
2026-05-05 04:37 29.25216 120.78054 37174 ft 518 kts 356°
2026-05-05 04:38 29.32512 120.78811 37159 ft 517 kts 356°
2026-05-05 04:38 29.39870 120.79572 37159 ft 520 kts 356°
2026-05-05 04:38 29.43468 120.79949 36878 ft 513 kts 356°
2026-05-05 04:39 29.47085 120.80325 35974 ft 518 kts 356°
2026-05-05 04:39 29.50714 120.80856 35007 ft 531 kts
2026-05-05 04:39 29.54376 120.81995 34088 ft 545 kts 12°
2026-05-05 04:39 29.57946 120.83750 33141 ft 557 kts 22°
2026-05-05 04:40 29.61374 120.86126 32208 ft 567 kts 31°
2026-05-05 04:40 29.64470 120.88991 31191 ft 577 kts 40°
2026-05-05 04:40 29.67251 120.92429 30367 ft 580 kts 50°
2026-05-05 04:40 29.69529 120.96231 29875 ft 573 kts 58°
2026-05-05 04:41 29.71573 121.00204 29323 ft 567 kts 59°
2026-05-05 04:41 29.73598 121.04122 28716 ft 562 kts 58°
2026-05-05 04:41 29.75587 121.07893 28107 ft 557 kts 58°
2026-05-05 04:41 29.77351 121.11179 27578 ft 553 kts 57°
2026-05-05 04:42 29.79377 121.14907 26961 ft 548 kts 57°
2026-05-05 04:42 29.81374 121.18541 26341 ft 543 kts 56°
2026-05-05 04:42 29.82980 121.21446 25842 ft 538 kts 56°
2026-05-05 04:42 29.84806 121.24727 25259 ft 533 kts 56°
2026-05-05 04:43 29.86861 121.28333 24627 ft 527 kts 52°
2026-05-05 04:43 29.89218 121.31595 23946 ft 518 kts 43°
2026-05-05 04:43 29.91921 121.34382 23287 ft 508 kts 34°
2026-05-05 04:43 29.94856 121.36616 22839 ft 494 kts 27°
2026-05-05 04:44 29.97848 121.38543 22183 ft 487 kts 26°
2026-05-05 04:44 30.00852 121.40437 21356 ft 485 kts 26°
2026-05-05 04:44 30.03783 121.42282 20937 ft 473 kts 26°
2026-05-05 04:44 30.06745 121.44145 20107 ft 472 kts 26°
2026-05-05 04:45 30.09631 121.45959 19486 ft 465 kts 26°
2026-05-05 04:45 30.12477 121.47749 19056 ft 454 kts 26°
2026-05-05 04:45 30.15301 121.49523 18056 ft 453 kts 26°
2026-05-05 04:45 30.18037 121.51244 17224 ft 437 kts 26°
2026-05-05 04:46 30.20689 121.52914 16720 ft 420 kts 26°
2026-05-05 04:46 30.21717 121.53560 16511 ft 418 kts 26°
2026-05-05 04:46 30.24033 121.55017 15887 ft 416 kts 26°
2026-05-05 04:46 30.26591 121.56634 15216 ft 413 kts 27°
2026-05-05 04:47 30.29093 121.58252 14630 ft 410 kts 27°
2026-05-05 04:47 30.31581 121.59866 14015 ft 406 kts 27°
2026-05-05 04:47 30.34053 121.61468 13348 ft 403 kts 27°
2026-05-05 04:47 30.36494 121.63052 12746 ft 399 kts 27°
2026-05-05 04:48 30.38908 121.64687 12115 ft 395 kts 30°
2026-05-05 04:48 30.41251 121.66344 11507 ft 391 kts 30°
2026-05-05 04:48 30.43568 121.67983 10988 ft 384 kts 30°
2026-05-05 04:48 30.45812 121.69569 10847 ft 368 kts 30°
2026-05-05 04:49 30.47970 121.71094 10711 ft 352 kts 31°
2026-05-05 04:49 30.50021 121.72542 10548 ft 339 kts 30°
2026-05-05 04:49 30.52010 121.73946 10416 ft 326 kts 30°
2026-05-05 04:49 30.53936 121.75303 10258 ft 315 kts 31°
2026-05-05 04:50 30.55782 121.76604 10096 ft 304 kts 30°
2026-05-05 04:50 30.57678 121.77625 9795 ft 298 kts 16°
2026-05-05 04:50 30.59661 121.78226 9628 ft 288 kts 12°
2026-05-05 04:50 30.61581 121.78740 9520 ft 278 kts 12°
2026-05-05 04:51 30.63474 121.79247 9423 ft 276 kts 12°
2026-05-05 04:51 30.65352 121.79754 9308 ft 275 kts 12°
2026-05-05 04:51 30.67250 121.80269 9208 ft 275 kts 12°
2026-05-05 04:51 30.69113 121.80776 9098 ft 274 kts 12°
2026-05-05 04:52 30.70973 121.81281 8959 ft 273 kts 12°
2026-05-05 04:52 30.72825 121.81785 8848 ft 273 kts 12°
2026-05-05 04:52 30.74698 121.82295 8736 ft 273 kts 13°
2026-05-05 04:52 30.76560 121.82802 8644 ft 272 kts 13°
2026-05-05 04:53 30.78412 121.83306 8499 ft 271 kts 12°
2026-05-05 04:53 30.80266 121.83812 8380 ft 271 kts 12°
2026-05-05 04:53 30.82120 121.84317 8268 ft 271 kts 13°
2026-05-05 04:53 30.83969 121.84821 8177 ft 271 kts 13°
2026-05-05 04:54 30.85810 121.85324 8063 ft 270 kts 13°
2026-05-05 04:54 30.87644 121.85825 7951 ft 270 kts 13°
2026-05-05 04:54 30.89486 121.86327 7819 ft 269 kts 13°
2026-05-05 04:54 30.91257 121.86797 7697 ft 268 kts
2026-05-05 04:55 30.93130 121.86668 7568 ft 267 kts 341°
2026-05-05 04:55 30.94772 121.85622 7463 ft 267 kts 323°
2026-05-05 04:55 30.96233 121.84259 7371 ft 267 kts 320°
2026-05-05 04:55 30.97655 121.82841 7241 ft 265 kts 319°
2026-05-05 04:56 30.99061 121.81427 7157 ft 265 kts 319°
2026-05-05 04:56 31.00480 121.80002 7023 ft 266 kts 319°
2026-05-05 04:56 31.01887 121.78590 6930 ft 265 kts 320°
2026-05-05 04:56 31.03288 121.77181 6827 ft 265 kts 319°
2026-05-05 04:57 31.04704 121.75723 6668 ft 266 kts 319°
2026-05-05 04:57 31.06088 121.74294 6508 ft 265 kts 319°
2026-05-05 04:57 31.07480 121.72858 6352 ft 264 kts 319°
2026-05-05 04:57 31.08853 121.71442 6208 ft 264 kts 319°
2026-05-05 04:58 31.10243 121.70010 6024 ft 264 kts 319°
2026-05-05 04:58 31.11623 121.68587 5867 ft 262 kts 318°
2026-05-05 04:58 31.13069 121.67295 5712 ft 264 kts 333°
2026-05-05 04:58 31.14822 121.66497 5588 ft 263 kts 341°
2026-05-05 04:59 31.16594 121.65854 5479 ft 263 kts 342°
2026-05-05 04:59 31.18377 121.65218 5362 ft 262 kts 342°
2026-05-05 04:59 31.20142 121.64582 5246 ft 261 kts 342°
2026-05-05 04:59 31.21885 121.63952 5125 ft 263 kts 342°
2026-05-05 05:00 31.23665 121.63306 5010 ft 264 kts 342°
2026-05-05 05:00 31.25419 121.62671 4973 ft 264 kts 342°
2026-05-05 05:00 31.27198 121.62002 4968 ft 264 kts 342°
2026-05-05 05:00 31.28952 121.61330 4969 ft 264 kts 342°
2026-05-05 05:01 31.30713 121.60658 4959 ft 265 kts 342°
2026-05-05 05:01 31.32464 121.59991 4975 ft 264 kts 342°
2026-05-05 05:01 31.34209 121.59327 4971 ft 258 kts 342°
2026-05-05 05:01 31.35898 121.58684 4954 ft 245 kts 342°
2026-05-05 05:02 31.37530 121.58316 4970 ft 236 kts
2026-05-05 05:02 31.39082 121.58907 4949 ft 233 kts 32°
2026-05-05 05:02 31.40252 121.60213 4948 ft 230 kts 59°
2026-05-05 05:02 31.40868 121.61899 4951 ft 215 kts 75°
2026-05-05 05:03 31.41233 121.63556 4970 ft 202 kts 78°
2026-05-05 05:03 31.41540 121.65167 4950 ft 196 kts 79°
2026-05-05 05:03 31.41555 121.66783 4970 ft 194 kts 105°
2026-05-05 05:03 31.40955 121.68190 4956 ft 193 kts 129°
2026-05-05 05:04 31.39881 121.69098 4913 ft 193 kts 155°
2026-05-05 05:04 31.38599 121.69671 4642 ft 193 kts 161°
2026-05-05 05:04 31.37348 121.70148 4410 ft 189 kts 162°
2026-05-05 05:04 31.36082 121.70612 4172 ft 186 kts 163°
2026-05-05 05:05 31.34849 121.71063 3948 ft 186 kts 163°
2026-05-05 05:05 31.33605 121.71524 3711 ft 185 kts 163°
2026-05-05 05:05 31.32364 121.71988 3473 ft 183 kts 163°
2026-05-05 05:05 31.31133 121.72450 3208 ft 182 kts 163°
2026-05-05 05:06 31.29917 121.72907 2965 ft 181 kts 163°
2026-05-05 05:06 31.28712 121.73361 2723 ft 179 kts 163°
2026-05-05 05:06 31.27524 121.73808 2475 ft 176 kts 163°
2026-05-05 05:06 31.26375 121.74241 2247 ft 172 kts 163°
2026-05-05 05:07 31.25258 121.74662 2021 ft 159 kts 163°
2026-05-05 05:07 31.24202 121.75059 1813 ft 155 kts 163°
2026-05-05 05:07 31.23200 121.75436 1607 ft 146 kts 163°
2026-05-05 05:07 31.22228 121.75801 1380 ft 148 kts 164°
2026-05-05 05:08 31.21258 121.76160 1179 ft 143 kts 163°
2026-05-05 05:08 31.20288 121.76531 991 ft 149 kts 163°
2026-05-05 05:08 31.19296 121.76908 803 ft 148 kts 163°
2026-05-05 05:08 31.18324 121.77275 612 ft 148 kts 163°
2026-05-05 05:09 31.17330 121.77647 409 ft 149 kts 163°
2026-05-05 05:09 31.16352 121.78011 234 ft 148 kts 163°
2026-05-05 05:09 31.15360 121.78384 52 ft 147 kts 163°
2026-05-05 05:09 31.14466 121.78719 27 ft 116 kts 162°
2026-05-05 05:10 31.13841 121.78956 27 ft 72 kts 163°
2026-05-05 05:10 31.13543 121.79114 27 ft 20 kts 135°
2026-05-05 05:10 31.13452 121.79219 27 ft 15 kts 135°
2026-05-05 05:10 31.13375 121.79307 27 ft 14 kts 136°
2026-05-05 05:11 31.13316 121.79397 27 ft 13 kts 99°
2026-05-05 05:11 31.13324 121.79456 27 ft 0 kts 71°
2026-05-05 05:13 31.13324 121.79457 27 ft 0 kts 71°
2026-05-05 05:13 31.13325 121.79459 27 ft 0 kts 71°
2026-05-05 05:14 31.13336 121.79495 27 ft 8 kts 71°
2026-05-05 05:15 31.13359 121.79578 27 ft 11 kts 72°
2026-05-05 05:15 31.13383 121.79663 27 ft 11 kts 72°
2026-05-05 05:15 31.13410 121.79761 27 ft 12 kts 72°
2026-05-05 05:15 31.13440 121.79820 27 ft 8 kts 22°
2026-05-05 05:16 31.13519 121.79805 27 ft 14 kts 343°
2026-05-05 05:16 31.13627 121.79768 27 ft 18 kts 343°
2026-05-05 05:16 31.13758 121.79721 27 ft 21 kts 343°
2026-05-05 05:16 31.13878 121.79668 27 ft 16 kts 342°
2026-05-05 05:17 31.13988 121.79627 27 ft 16 kts 342°
2026-05-05 05:17 31.14095 121.79587 27 ft 15 kts 342°
2026-05-05 05:17 31.14198 121.79547 27 ft 15 kts 342°
2026-05-05 05:17 31.14299 121.79510 27 ft 15 kts 342°
2026-05-05 05:18 31.14398 121.79472 27 ft 14 kts 341°
2026-05-05 05:18 31.14494 121.79434 27 ft 14 kts 341°
2026-05-05 05:18 31.14588 121.79400 27 ft 14 kts 342°
2026-05-05 05:18 31.14682 121.79366 27 ft 13 kts 341°
2026-05-05 05:19 31.14773 121.79330 27 ft 13 kts 342°
2026-05-05 05:19 31.14836 121.79314 27 ft 7 kts
2026-05-05 05:19 31.14874 121.79354 27 ft 8 kts 66°
2026-05-05 05:19 31.14895 121.79417 27 ft 9 kts 70°
2026-05-05 05:20 31.14916 121.79488 27 ft 10 kts 73°
2026-05-05 05:20 31.14933 121.79572 27 ft 8 kts 99°
2026-05-05 05:20 31.14895 121.79621 27 ft 8 kts 157°
2026-05-05 05:20 31.14838 121.79644 27 ft 7 kts 162°
2026-05-05 05:21 31.14794 121.79662 27 ft 5 kts 146°
2026-05-05 05:21 31.14783 121.79700 27 ft 5 kts 85°
2026-05-05 05:21 31.14792 121.79739 27 ft 4 kts 72°
2026-05-05 05:21 31.14800 121.79766 27 ft 2 kts 71°
2026-05-05 05:22 31.14803 121.79777 27 ft 1 kts 72°
2026-05-05 05:22 31.14803 121.79778 27 ft 0 kts 72°